Regional Weather Roundup
Issued by NWS

Home | Current Version | Previous Version | Graphics & Text | Print | Product List | Glossary On
Versions: 1 2 3 4 5 6 7 8 9 10 11 12 13 14 15 16 17 18 19 20 21 22 23 24 25 26 27 28 29 30 31 32 33 34 35 36 37 38 39 40 41 42 43 44 45 46 47 48 49 50
000
ASUS43 KBIS 191510
RWRND

NORTH DAKOTA REGIONAL WEATHER ROUNDUP
NATIONAL WEATHER SERVICE BISMARCK ND
1000 AM CDT SUN APR 19 2015

NOTE: "FAIR" INDICATES FEW OR NO CLOUDS BELOW 12,000 FEET WITH NO
SIGNIFICANT WEATHER AND/OR OBSTRUCTIONS TO VISIBILITY.


NDZ001>003-009>011-017-191600-
NORTHWEST NORTH DAKOTA

CITY           SKY/WX    TMP DP  RH WIND       PRES   REMARKS
WILLISTON      CLOUDY    41  34  76 NW20      30.02S
MINOT          PTSUNNY   45  37  73 W22G29    29.88S
MINOT AFB      PTSUNNY   44  41  87 NW23G30   29.86F
$$

NDZ018>021-031>035-040>046-191600-
SOUTHWEST NORTH DAKOTA

CITY           SKY/WX    TMP DP  RH WIND       PRES   REMARKS
BISMARCK       MOSUNNY   45  34  65 NW23G37   29.90F
DICKINSON      CLOUDY    41  32  70 NW28G36   29.97F
GARRISON         N/A     44  37  76 NW29G37   29.89F
HETTINGER ARPT MOSUNNY   40  30  67 NW31G39   30.00F
$$

NDZ004>008-012>016-024-026-027-054-191600-
NORTHEAST NORTH DAKOTA

CITY           SKY/WX    TMP DP  RH WIND       PRES   REMARKS
GRAND FORKS    LGT RAIN  44  43  96 NW14      29.71S FOG
GRND FRKS AFB  LGT RAIN  44  41  89 NW17      29.71S
DEVILS LAKE    CLOUDY    43  37  81 NW16G22   29.77S
$$

NDZ022-023-025-028>030-036>039-047>053-191600-
SOUTHEAST NORTH DAKOTA

CITY           SKY/WX    TMP DP  RH WIND       PRES   REMARKS
FARGO          LGT RAIN  45  42  89 NW20G32   29.71R FOG
JAMESTOWN      CLOUDY    44  39  82 NW21      29.78S
$$



USA.gov is the U.S. government's official web portal to all federal, state and local government web resources and services.